Hourly Weather Roundup
Issued by NWS

Home | Current Version | Previous Version | Text Only | Print | Product List | Glossary On
Versions: 1 2 3 4 5 6 7 8 9 10 11 12 13 14 15 16 17 18 19 20 21 22 23 24 25 26 27 28 29 30 31 32 33 34 35 36 37 38 39 40 41 42 43 44 45 46 47 48 49 50
000
NZUS43 KILX 300410
HWRCRS

NWR Hourly Weather Roundup
National Weather Service Lincoln IL
1100 PM CDT MON MAY 29 2017


CITY           SKY/WX    TMP DP  RH WIND       PRES   REMARKS
Champaign      PTCLDY    63  46  54 CALM      29.95S
Lawrenceville  CLEAR     65  54  67 NW6       29.97R
Peoria         CLEAR     61  46  57 W5        29.94R
Springfield    PTCLDY    67  47  48 W6        29.97R
$$


CITY           SKY/WX    TMP DP  RH WIND       PRES   REMARKS
Bloomington    PTCLDY    64  44  48 SW6       29.96R
Danville       CLEAR     61  55  82 CALM      29.93S
Decatur        PTCLDY    63  48  58 SW3       29.96R
Effingham      CLEAR     58  58 100 CALM      29.99R
Flora          CLEAR     65  57  75 W5        29.98R
Galesburg      CLEAR     61  44  53 W5        29.94S
Jacksonville   MOCLDY    63  49  60 W6        29.97S
Lacon          PTCLDY    60  47  63 CALM      29.92S
La Salle       CLEAR     61  45  55 W8        29.92S
Lincoln        PTCLDY    68  45  43 CALM      29.95S
Litchfield     MOCLDY    61  55  78 CALM      29.98R

CITY           SKY/WX    TMP DP  RH WIND       PRES   REMARKS
Macomb         CLEAR     58  45  60 W7        29.97S
Mattoon        CLEAR     63  54  72 W5        29.96R
Moline         CLEAR     61  45  55 W6        29.93R
Olney          CLEAR     61  61 100 CALM      29.98R
Paris          CLEAR     64  56  76 W5        29.97R
Pontiac        CLEAR     64  48  57 SW6       29.93S
Quincy         PTCLDY    64  45  49 W3        29.98R
Rantoul        PTCLDY    62  51  66 W3        29.95R
Robinson       CLEAR     62  55  76 W6        29.97R
Taylorville    PTCLDY    61  54  77 CALM      29.97S
Terre Haute    CLEAR     63  57  81 CALM      29.95S
$$


CITY           SKY/WX    TMP DP  RH WIND       PRES   REMARKS
Burlington     PTCLDY    63  42  46 NW6       29.95R
Chicago        PTCLDY    62  46  55 SW3       29.88R
Des Moines     PTCLDY    64  42  44 NW8       29.99R
Evansville     CLOUDY    65  57  75 MISG      29.98S
Indianapolis   CLOUDY    64  56  75 NW7       29.94S
Kansas City    CLEAR     63  44  50 N8        30.03R
Milwaukee      MOCLDY    57  51  80 W5        29.87R
St Louis       PTCLDY    67  59  75 W3        29.99R
$$





USA.gov is the U.S. government's official web portal to all federal, state and local government web resources and services.